Weather Roundup
Issued by NWS

Home | Current Version | Previous Version | Text Only | Print | Product List | Glossary On
Versions: 1 2 3 4 5 6 7 8 9 10 11 12 13 14 15 16 17 18 19 20 21 22 23 24 25 26 27 28 29 30 31 32 33 34 35 36 37 38 39 40 41 42 43 44 45 46 47 48 49 50
000
NZUS93 KARX 281210
HRRWXR

CURRENT HOURLY OBSERVATIONS ACROSS
MUCH OF THE UPPER MISSISSIPPI VALLEY
NATIONAL WEATHER SERVICE LA CROSSE WI
700 AM CDT MON JUL 28 2014


...SOUTHEAST MINNESOTA...


CITY           SKY/WX    TMP DP  RH WIND       PRES   REMARKS
ROCHESTER      PTSUNNY   58  55  90 W6        30.19R
ROCHESTER/MAYO FAIR      59  54  84 W6        30.18S
WINONA         CLOUDY    59  57  94 NW3       30.17R
AUSTIN         CLOUDY    61  55  82 CALM      30.19R
ALBERT LEA     MOCLDY    57  55  94 CALM      30.20R
DODGE CENTER   CLOUDY    61  57  88 NW3       30.19S
PRESTON        CLOUDY    56  56 100 CALM      30.18R
OWATONNA       MOCLDY    61  57  88 NW5       30.20R
FARIBAULT      MOCLDY    64  55  72 NW3       30.20R
$$

...ELSEWHERE IN MINNESOTA...


CITY           SKY/WX    TMP DP  RH WIND       PRES   REMARKS
MINNEAPOLIS    CLOUDY    64  58  80 N5        30.19R
INTNL FALLS    SUNNY     52  50  93 W3        30.19R
DULUTH         CLOUDY    58  53  84 NW5       30.17R
RED WING       CLOUDY    57  57 100 CALM      30.17R
REDWOOD FALLS  CLOUDY    62  60  93 NW6       30.22R
MANKATO        CLOUDY    61  55  82 NW3       30.20S
WORTHINGTON    CLOUDY    59  55  88 NW8       30.25R
FAIRMONT       CLOUDY    61  57  88 NW3       30.21R
$$

...SOUTHWEST WISCONSIN...


CITY           SKY/WX    TMP DP  RH WIND       PRES   REMARKS
LA CROSSE      CLOUDY    59  54  83 N6        30.15R
PRAIRIE DU CHI SUNNY     58  53  83 NW3       30.14R
BOSCOBEL       SUNNY     56  52  86 CALM      30.14R
LONE ROCK      SUNNY     60  52  74 NW6       30.13R
PLATTEVILLE    SUNNY     55  53  91 NW8       30.14R
FORT MC COY    SUNNY     49  49  98 CALM      30.16R
CAMP DOUGLAS   PTSUNNY   50  50 100 W3        30.14R
VIROQUA        FAIR      53  53 100 CALM      30.15R
WIS DELLS      SUNNY     53  50  89 NW6       30.12R
$$

...ELSEWHERE IN WISCONSIN...


CITY           SKY/WX    TMP DP  RH WIND       PRES   REMARKS
MILWAUKEE      MOSUNNY   56  46  69 N13       30.04R
MADISON        SUNNY     56  51  84 NW10      30.10R
GREEN BAY      SUNNY     53  47  79 N10       30.08R
EAU CLAIRE     CLOUDY    58  56  93 CALM      30.16R
BLACK RVR FLS  FAIR      46  46 100 CALM      30.15R
MEDFORD        SUNNY     51  49  95 NW3       30.15R
WAUSAU         SUNNY     52  49  89 NW7       30.12R
WIS RAPIDS     SUNNY     53  50  89 MISG      30.14R
MARSHFIELD     SUNNY     53  50  89 N10       30.14R
RICE LAKE      CLOUDY    57  55  94 CALM      30.19R
$$

...NORTHEAST IOWA...


CITY           SKY/WX    TMP DP  RH WIND       PRES   REMARKS
WATERLOO       CLEAR     57  54  89 NW6       30.16R
DUBUQUE        SUNNY     56  53  90 N8        30.13R
DECORAH        MOSUNNY   55  54  94 N6        30.16R
MASON CITY     MOCLDY    60  57  89 NW5       30.21R
CHARLES CITY   CLOUDY    59  57  94 NW7       30.18S
OELWEIN        SUNNY     55  54  94 N7        30.17R
$$

...ELSEWHERE IN IOWA...


CITY           SKY/WX    TMP DP  RH WIND       PRES   REMARKS
DES MOINES     PTCLDY    61  58  90 NW7       30.17R
IOWA CITY      SUNNY     61  55  81 N8        30.14R
FORT DODGE     CLOUDY    59  57  94 N5        30.21R
MARSHALLTOWN   PTCLDY    57  55  93 NW6       30.17R
CEDAR RAPIDS   SUNNY     59  53  80 N14       30.12S
$$

...NORTHERN ILLINOIS...


CITY           SKY/WX    TMP DP  RH WIND       PRES   REMARKS
CHICAGO-OHARE  MOSUNNY   60  49  66 N16       30.01R
DUPAGE         SUNNY     59  52  77 N12       30.02R
CHICAGO-MIDWAY MOSUNNY   62  50  64 N14       30.00R
MOLINE         SUNNY     62  53  72 N8        30.10R
ROCKFORD       MOSUNNY   57  50  77 N10       30.09R
STERLING       SUNNY     59  52  77 N10G17    30.08R
PEORIA         SUNNY     64  57  78 N6        30.06R
$$

NOTE: "FAIR" INDICATES FEW OR NO CLOUDS BELOW 12,000 FEET WITH NO
SIGNIFICANT WEATHER AND/OR OBSTRUCTIONS TO VISIBILITY. WIND
SPEEDS ARE IN MILES-PER-HOUR.



USA.gov is the U.S. government's official web portal to all federal, state and local government web resources and services.